Home   Weather   Sedona   Past weeks

Flag for USA Past Weather in Sedona, Arizona, USA — Yesterday and Last 2 Weeks

Now
64 °F

Sunny.


Feels Like: 64 °F
Forecast: 61 / 87 °F
Wind: 13 mph from Northeast

Location: Sedona Airport

Current Time: Aug 17, 2017 at 6:59:30 am

Latest Report: Aug 17, 2017 at 5:55 am


Visibility: 10 mi

Pressure: 30.17 "Hg (25.96 "Hg at 1282m altitude)

Humidity: 37%

Dew Point: 37 °F

Location of SedonaLocation

Past Weather in Sedona — Graph

°F

Sedona Temperature Yesterday

Maximum temperature yesterday: 88 °F (at 2:35 pm)
Minimum temperature yesterday: 61 °F (at 5:55 am)
Average temperature yesterday: 74 °F

High & Low Weather Summary for the Past Weeks

 TemperatureHumidityPressure
High93 °F (Aug 10, 2:15 pm)94% (Aug 4, 10:35 pm)30.27 "Hg (Aug 4, 10:35 pm)
Low61 °F (Aug 16, 5:55 am)15% (Aug 16, 12:35 pm)29.98 "Hg (Aug 14, 5:15 pm)
Average76 °F45%30.14 "Hg
* Reported Aug 2 5:15 am — Aug 17 5:35 am, Sedona. Weather by CustomWeather, © 2017

Note: Actual official high and low records may vary slightly from our data, if they occured in-between our weather recording intervals... More about our weather records

Advertising

Sedona Weather History for the Previous 24 Hours

Scroll right to see more
 ConditionsComfort  
Time TempWeatherWind HumidityBarometerVisibility
5:35 am
Thu, Aug 17
64 °FClear.12 mph37%30.17 "Hg10 mi
5:15 am66 °FClear.12 mph35%30.17 "Hg10 mi
4:55 am66 °FClear.13 mph35%30.15 "Hg10 mi
4:35 am64 °FClear.15 mph37%30.15 "Hg10 mi
4:15 am66 °FClear.15 mph35%30.15 "Hg10 mi
3:55 am66 °FClear.14 mph35%30.15 "Hg10 mi
3:35 am66 °FClear.13 mph35%30.15 "Hg10 mi
3:15 am66 °FClear.13 mph35%30.15 "Hg10 mi
2:55 am66 °FClear.10 mph35%30.15 "Hg10 mi
2:35 am66 °FClear.10 mph35%30.15 "Hg10 mi
2:15 am68 °FClear.9 mph33%30.15 "Hg10 mi
1:55 am68 °FClear.10 mph33%30.15 "Hg10 mi
1:35 am68 °FClear.8 mph33%30.15 "Hg10 mi
1:15 am68 °FClear.9 mph33%30.15 "Hg10 mi
12:55 am68 °FClear.9 mph33%30.15 "Hg10 mi
12:35 am70 °FClear.9 mph31%30.15 "Hg10 mi
11:55 pm
Wed, Aug 16
70 °FClear.9 mph31%30.15 "Hg10 mi
11:35 pm70 °FClear.9 mph31%30.14 "Hg10 mi
11:15 pm70 °FClear.8 mph31%30.14 "Hg10 mi
10:55 pm70 °FClear.8 mph31%30.14 "Hg10 mi
10:35 pm72 °FClear.6 mph29%30.14 "Hg10 mi
10:15 pm73 °FClear.No wind25%30.14 "Hg10 mi
9:55 pm73 °FClear.3 mph25%30.14 "Hg10 mi
9:35 pm73 °FClear.No wind27%30.14 "Hg10 mi
9:15 pm73 °FClear.6 mph25%30.13 "Hg10 mi
8:55 pm77 °FClear.3 mph22%30.13 "Hg10 mi
8:35 pm77 °FClear.3 mph22%30.12 "Hg10 mi
8:15 pm77 °FClear.3 mph22%30.11 "Hg10 mi
7:55 pm77 °FClear.6 mph22%30.10 "Hg10 mi
7:35 pm79 °FClear.8 mph23%30.10 "Hg10 mi
7:15 pm79 °FClear.7 mph21%30.09 "Hg10 mi
6:55 pm81 °FSunny.9 mph20%30.08 "Hg10 mi
6:35 pm81 °FSunny.6 mph21%30.08 "Hg10 mi
5:55 pm82 °FSunny.6 mph20%30.08 "Hg10 mi
5:15 pm84 °FSunny.10 mph18%30.09 "Hg10 mi
4:55 pm84 °FSunny.3 mph18%30.09 "Hg10 mi
4:35 pm84 °FSunny.10 mph18%30.09 "Hg10 mi
4:15 pm86 °FSunny.12 mph17%30.09 "Hg10 mi
3:55 pm86 °FSunny.7 mph17%30.09 "Hg10 mi
3:35 pm86 °FSunny.7 mph17%30.10 "Hg10 mi
3:15 pm86 °FSunny.7 mph17%30.10 "Hg10 mi
2:55 pm86 °FSunny.No wind17%30.11 "Hg10 mi
2:35 pm88 °FSunny.14 mph16%30.11 "Hg10 mi
2:15 pm86 °FSunny.5 mph17%30.12 "Hg10 mi
1:55 pm84 °FSunny.10 mph16%30.13 "Hg10 mi
1:35 pm86 °FSunny.8 mph17%30.13 "Hg10 mi
1:15 pm84 °FSunny.14 mph18%30.13 "Hg10 mi
12:55 pm86 °FSunny.9 mph17%30.14 "Hg10 mi
12:35 pm86 °FSunny.7 mph15%30.15 "Hg10 mi
11:55 am84 °FSunny.9 mph18%30.15 "Hg10 mi
11:35 am84 °FSunny.10 mph16%30.16 "Hg10 mi
10:55 am81 °FSunny.6 mph20%30.17 "Hg10 mi
10:35 am81 °FSunny.9 mph18%30.17 "Hg10 mi
10:15 am81 °FSunny.12 mph18%30.17 "Hg10 mi
9:55 am77 °FSunny.6 mph19%30.17 "Hg10 mi
9:35 am77 °FSunny.3 mph19%30.17 "Hg10 mi
8:55 am73 °FSunny.3 mph22%30.15 "Hg10 mi
8:35 am72 °FSunny.No wind23%30.15 "Hg10 mi
8:15 am72 °FSunny.3 mph25%30.15 "Hg10 mi
7:55 am68 °FSunny.No wind26%30.14 "Hg10 mi
7:35 am68 °FSunny.7 mph26%30.14 "Hg10 mi
7:15 am64 °FSunny.8 mph30%30.13 "Hg10 mi
6:55 am64 °FSunny.7 mph28%30.13 "Hg10 mi
6:35 am63 °FSunny.8 mph30%30.12 "Hg10 mi
6:15 am61 °FSunny.10 mph31%30.11 "Hg10 mi
Weather by CustomWeather, © 2017

See weather overviewHow to use our weather pages